Terminal Aerodrome Forecast
Issued by NWS Greer, SC

Home | Current Version | Previous Version | Text Only | Print | Product List | Glossary On
Versions: 1 2 3 4 5 6 7 8 9 10 11 12 13 14 15 16 17 18 19 20 21 22 23 24 25 26 27 28 29 30 31 32 33 34 35 36 37 38 39 40 41 42
000
FTUS42 KGSP 232320
TAFCLT
TAF
KCLT 232320Z 2400/2424 12005KT P6SM SCT050
     FM240900 15003KT 5SM BR BKN025
     FM241100 14003KT 2SM BR BKN005
     FM241400 16003KT P6SM BKN015
     FM241600 16003KT P6SM SCT025
     FM242100 19006G15KT P6SM SCT200=

USA.gov is the U.S. government's official web portal to all federal, state and local government web resources and services.